Date String (YYYY-MM-DD hh:mm:ss) UTC,Instrument flags,absolute air pressure of the measurement (hPa),sample flow rate (lpm),inlet stack bypass flow (lpm),air temperature of the measurement (°C),ambient temperature measured by the external sensor (°C),aerosol sample conditioner tube jacket temperature (°C),OPC LED temperature (°C),internal box temperature (°C),relative humidity of the measurement (%),span deviation,mass concentration of particles derived from Lorenz-Mie calculation of OPC scattering (μg/m³),mass concentration of particles derived from Lorenz-Mie calculation of OPC scattering (μg/m³),mass concentration of particles derived from Lorenz-Mie calculation of OPC scattering (μg/m³)
DateTimeUTC,F1_M11,P_M11,Q1_M11,Q2_M11,T1_M11,T2_M11,T3_M11,T4_M11,T5_M11,U1_M11,ZSPAN_M11,X2_M11,X0_M11,X1_M11
2023-07-13 10:00:00,SystemResetWarning,0830.4,5.01,000.00,029.4,025.2,000.0,037.7,030.6,23.5,0000.0,0003.69,0007.44,0003.24
2023-07-13 10:01:00,SystemResetWarning,0830.4,5.01,000.00,029.3,025.5,000.0,037.7,030.5,23.3,0000.0,0003.72,0008.16,0003.25
2023-07-13 10:02:00,SystemResetWarning,0830.4,5.00,000.00,029.2,025.9,000.0,037.7,030.5,24.6,0000.0,0003.70,0008.22,0003.25
2023-07-13 10:03:00,SystemResetWarning,0830.4,5.00,000.00,029.2,026.3,000.0,037.8,030.6,27.4,0000.0,0003.68,0008.05,0003.25
2023-07-13 10:04:00,SystemResetWarning,0830.4,4.99,000.00,029.2,026.6,000.0,037.8,030.6,26.6,0000.0,0003.68,0008.13,0003.25
2023-07-13 10:05:00,SystemResetWarning,0830.4,4.99,000.00,029.2,026.9,000.0,037.8,030.7,25.8,0000.0,0003.67,0008.14,0003.25
2023-07-13 10:06:00,SystemResetWarning,0830.4,5.00,000.00,029.2,027.2,000.0,037.8,030.7,25.1,0000.0,0003.64,0007.77,0003.24
2023-07-13 10:07:00,SystemResetWarning,0830.4,5.00,000.00,029.2,027.4,000.0,037.8,030.8,24.9,0000.0,0003.64,0007.49,0003.23
2023-07-13 10:08:00,SystemResetWarning,0830.4,5.01,000.00,029.3,027.6,000.0,037.8,030.8,24.8,0000.0,0003.68,0007.78,0003.23
2023-07-13 10:09:00,SystemResetWarning,0830.4,5.01,000.00,029.3,027.7,000.0,037.8,030.9,24.2,0000.0,0003.67,0007.76,0003.23
2023-07-13 10:10:00,SystemResetWarning,0830.4,4.99,000.00,029.3,027.9,000.0,037.8,030.9,23.9,0000.0,0003.68,0007.82,0003.23
2023-07-13 10:11:00,SystemResetWarning,0830.4,4.99,000.00,029.3,028.0,000.0,037.8,031.0,23.7,0000.0,0003.69,0007.49,0003.24
2023-07-13 10:12:00,SystemResetWarning,0830.4,5.00,000.00,029.4,028.0,000.0,037.8,031.0,23.7,0000.0,0003.68,0006.63,0003.25
2023-07-13 10:13:00,SystemResetWarning,0830.4,5.00,000.00,029.4,028.1,000.0,037.8,031.0,23.7,0000.0,0003.67,0006.45,0003.25
2023-07-13 10:14:00,SystemResetWarning,0830.4,5.00,000.00,029.4,028.2,000.0,037.9,031.1,23.1,0000.0,0003.70,0006.58,0003.24
2023-07-13 10:15:00,SystemResetWarning,0830.4,5.01,000.00,029.5,028.3,000.0,037.9,031.1,22.8,0000.0,0003.71,0006.53,0003.24
2023-07-13 10:16:00,SystemResetWarning,0830.4,5.01,000.00,029.5,028.3,000.0,037.9,031.1,22.3,0000.0,0003.73,0006.61,0003.24
2023-07-13 10:17:00,SystemResetWarning,0830.4,5.00,000.00,029.5,028.4,000.0,037.9,031.2,22.4,0000.0,0003.75,0006.77,0003.24
2023-07-13 10:18:00,SystemResetWarning,0830.4,5.00,000.00,029.5,028.3,000.0,037.9,031.2,22.3,0000.0,0003.77,0007.05,0003.25
2023-07-13 10:19:00,SystemResetWarning,0830.4,4.98,000.00,029.5,026.8,000.0,037.8,031.0,22.3,0000.0,0003.73,0007.35,0003.24
2023-07-13 10:20:00,SystemResetWarning,0830.4,5.01,000.00,029.5,025.4,000.0,037.7,030.8,22.0,0000.0,0003.71,0007.43,0003.23
2023-07-13 10:21:00,SystemResetWarning,0830.4,5.01,000.00,029.4,025.2,000.0,037.7,030.6,22.8,0000.0,0003.68,0007.44,0003.22
2023-07-13 10:22:00,SystemResetWarning,0830.4,5.00,000.00,029.2,025.5,000.0,037.7,030.4,23.4,0000.0,0003.65,0007.43,0003.20
2023-07-13 10:23:00,SystemResetWarning,0830.4,5.00,000.00,029.2,025.9,000.0,037.7,030.5,23.8,0000.0,0003.63,0007.37,0003.19
2023-07-13 10:24:00,SystemResetWarning,0830.4,5.00,000.00,029.2,026.3,000.0,037.7,030.6,23.8,0000.0,0003.65,0007.46,0003.18
2023-07-13 10:25:00,SystemResetWarning,0830.4,5.00,000.00,029.2,026.6,000.0,037.7,030.6,24.1,0000.0,0003.63,0007.45,0003.15
2023-07-13 10:26:00,SystemResetWarning,0830.4,5.00,000.00,029.2,026.9,000.0,037.7,030.7,24.1,0000.0,0003.59,0007.36,0003.14
2023-07-13 10:27:00,SystemResetWarning,0830.5,5.00,000.00,029.2,027.2,000.0,037.7,030.7,23.7,0000.0,0003.61,0007.35,0003.14
2023-07-13 10:28:00,SystemResetWarning,0830.4,4.99,000.00,029.2,027.4,000.0,037.7,030.8,23.4,0000.0,0003.60,0007.31,0003.13
2023-07-13 10:29:00,SystemResetWarning,0830.4,4.99,000.00,029.2,027.6,000.0,037.7,030.8,23.9,0000.0,0003.56,0007.16,0003.12
2023-07-13 10:30:00,SystemResetWarning,0830.4,5.00,000.00,029.3,027.7,000.0,037.8,030.9,23.4,0000.0,0003.53,0006.22,0003.12
2023-07-13 10:31:00,SystemResetWarning,0830.4,5.00,000.00,029.3,027.8,000.0,037.8,030.9,22.9,0000.0,0003.53,0005.99,0003.12
2023-07-13 10:32:00,SystemResetWarning,0830.4,5.00,000.00,029.3,027.9,000.0,037.8,030.9,22.8,0000.0,0003.55,0005.94,0003.12
2023-07-13 10:33:00,SystemResetWarning,0830.4,5.01,000.00,029.4,028.0,000.0,037.8,031.0,22.6,0000.0,0003.52,0005.70,0003.11
2023-07-13 10:34:00,SystemResetWarning,0830.4,5.01,000.00,029.4,028.1,000.0,037.8,031.0,23.0,0000.0,0003.52,0005.63,0003.12
2023-07-13 10:35:00,SystemResetWarning,0830.4,5.00,000.00,029.4,028.2,000.0,037.8,031.0,22.3,0000.0,0003.49,0005.49,0003.12
2023-07-13 10:36:00,SystemResetWarning,0830.4,5.00,000.00,029.4,028.2,000.0,037.8,031.1,22.1,0000.0,0003.49,0005.59,0003.14
2023-07-13 10:37:00,SystemResetWarning,0830.5,4.99,000.00,029.5,028.3,000.0,037.9,031.1,22.0,0000.0,0003.48,0005.61,0003.14
2023-07-13 10:38:00,SystemResetWarning,0830.4,5.00,000.00,029.5,028.3,000.0,037.9,031.1,22.9,0000.0,0003.47,0005.76,0003.13
2023-07-13 10:39:00,SystemResetWarning,0830.5,5.00,000.00,029.5,028.4,000.0,037.9,031.2,22.4,0000.0,0003.44,0005.71,0003.13
2023-07-13 10:40:00,SystemResetWarning,0830.5,5.00,000.00,029.6,028.4,000.0,037.9,031.2,22.0,0000.0,0003.43,0005.55,0003.13
2023-07-13 10:41:00,SystemResetWarning,0830.4,5.00,000.00,029.6,028.3,000.0,037.9,031.2,22.0,0000.0,0003.45,0005.50,0003.14
2023-07-13 10:42:00,SystemResetWarning,0830.4,4.99,000.00,029.6,026.7,000.0,037.8,031.1,22.3,0000.0,0003.45,0005.46,0003.14
2023-07-13 10:43:00,SystemResetWarning,0830.3,5.02,000.00,029.5,025.4,000.0,037.7,030.8,22.3,0000.0,0003.47,0005.45,0003.14
2023-07-13 10:44:00,SystemResetWarning,0830.3,5.01,000.00,029.4,025.3,000.0,037.7,030.6,22.7,0000.0,0003.48,0005.58,0003.14
2023-07-13 10:45:00,SystemResetWarning,0830.3,4.99,000.00,029.3,025.6,000.0,037.7,030.5,22.8,0000.0,0003.49,0005.68,0003.14
2023-07-13 10:46:00,SystemResetWarning,0830.4,5.00,000.00,029.2,026.0,000.0,037.8,030.5,22.4,0000.0,0003.54,0006.00,0003.14
2023-07-13 10:47:00,SystemResetWarning,0830.4,5.00,000.00,029.2,026.3,000.0,037.8,030.6,22.6,0000.0,0003.55,0005.91,0003.14
2023-07-13 10:48:00,SystemResetWarning,0830.4,5.01,000.00,029.2,026.7,000.0,037.8,030.7,22.3,0000.0,0003.57,0005.92,0003.15
2023-07-13 10:49:00,SystemResetWarning,0830.4,5.00,000.00,029.2,027.0,000.0,037.8,030.7,22.7,0000.0,0003.60,0005.81,0003.15
2023-07-13 10:50:00,SystemResetWarning,0830.4,4.99,000.00,029.2,027.2,000.0,037.8,030.8,22.6,0000.0,0003.63,0005.94,0003.17
2023-07-13 10:51:00,SystemResetWarning,0830.5,5.00,000.00,029.2,027.4,000.0,037.8,030.8,22.5,0000.0,0003.66,0006.14,0003.18
2023-07-13 10:52:00,SystemResetWarning,0830.4,5.00,000.00,029.3,027.6,000.0,037.8,030.8,22.1,0000.0,0003.63,0006.08,0003.17
2023-07-13 10:53:00,SystemResetWarning,0830.4,5.00,000.00,029.3,027.7,000.0,037.8,030.9,22.0,0000.0,0003.63,0006.11,0003.17
2023-07-13 10:54:00,SystemResetWarning,0830.5,5.01,000.00,029.3,027.9,000.0,037.8,030.9,21.9,0000.0,0003.61,0005.97,0003.17
2023-07-13 10:55:00,SystemResetWarning,0830.5,5.00,000.00,029.3,028.0,000.0,037.8,031.0,21.8,0000.0,0003.61,0006.32,0003.17
2023-07-13 10:56:00,SystemResetWarning,0830.6,5.00,000.00,029.4,028.1,000.0,037.8,031.0,24.0,0000.0,0003.67,0007.12,0003.18
2023-07-13 10:57:00,SystemResetWarning,0830.6,5.00,000.00,029.4,028.2,000.0,037.9,031.1,24.7,0000.0,0003.66,0007.02,0003.17
2023-07-13 10:58:00,SystemResetWarning,0830.6,4.99,000.00,029.4,028.2,000.0,037.9,031.1,24.8,0000.0,0003.68,0007.06,0003.18
2023-07-13 10:59:00,SystemResetWarning,0830.7,5.01,000.00,029.5,028.3,000.0,037.9,031.1,24.5,0000.0,0003.68,0007.19,0003.18
